Hourly Data Report for November 08, 2016

CARBERRY CS
MANITOBA

49°54'20.900" N
99°21'26.800" W
383.50 m
5010547
71170
WZE

Download Data

Hourly Data (November 2016)
Hourly Data Report for November 8, 2016
TIME
LST
Temp Definition
°C
Dew Point Definition
°C
Rel Hum Definition
%
Precip. Amount Definition
mm

Wind Dir Definition
10's deg

Wind Spd Definition
km/h
Visibility Definition
km
Stn Press Definition
kPa
Hmdx Definition


Wind Chill Definition


Weather Definition


00:00 1.0 -0.7 89 0.0 27 8   98.08     LegendNANA
01:00 -0.1 -1.7 89 0.0 27 10   98.12   -3 LegendNANA
02:00 -0.3 -1.6 91 0.0 26 12   98.17   -4 LegendNANA
03:00 -1.3 -2.6 91 0.0 26 8   98.21   -4 LegendNANA
04:00 -1.3 -2.7 90 0.0 24 4   98.23   -3 LegendNANA
05:00 -0.8 -1.9 92 0.0 24 7   98.22   -3 LegendNANA
06:00 -0.3 -1.7 90 0.0 25 13   98.25   -4 LegendNANA
07:00 -0.6 -1.8 92 0.0 25 10   98.25   -4 LegendNANA
08:00 0.2 -1.2 90 0.0 24 9   98.26     LegendNANA
09:00 1.2 -0.7 87 0.0 24 11   98.36     LegendNANA
10:00 4.0 0.6 79 0.0 23 8   98.29     LegendNANA
11:00 7.2 1.7 68 0.0 23 9   98.27     LegendNANA
12:00 10.5 2.5 58 0.0 21 11   98.24     LegendNANA
13:00 12.0 0.9 47 0.0 23 11   98.17     LegendNANA
14:00 12.5 1.2 46 0.0 21 12   98.08     LegendNANA
15:00 12.6 0.8 44 0.0 20 16   98.00     LegendNANA
16:00 12.7 0.2 42 0.0 20 15   97.98     LegendNANA
17:00 9.2 0.6 55 0.0 18 14   97.91     LegendNANA
18:00 8.1 0.4 58 0.0 18 16   97.82     LegendNANA
19:00 7.3 1.6 67 0.0 19 15   97.76     LegendNANA
20:00 6.9 2.7 74 0.0 19 16   97.67     LegendNANA
21:00 6.6 2.7 76 0.0 19 16   97.60     LegendNANA
22:00 5.3 2.4 82 0.0 19 12   97.54     LegendNANA
23:00 4.3 2.0 85 0.0 18 12   97.47     LegendNANA

Notes on Data Quality.

Legend

  • E = Estimated
  • M = Missing
  • NA = Not Available*
  • [empty] = Indicates an unobserved value
Date modified: